Meteo orario Abolone

Oggi, 9 Marzo, Martedi

Tempo Temperatura Precipitazioni Vento Pressione Umidità
00:00 -14°C° 0 mm 2 m/s 739 mm Hg 95%
01:00 -15°C° 0 mm 2 m/s 740 mm Hg 95%
02:00 -13°C° 0 mm 1 m/s 740 mm Hg 97%
03:00 -13°C° 0 mm 1 m/s 740 mm Hg 97%
04:00 -14°C° 0 mm 1 m/s 741 mm Hg 97%
05:00 -16°C° 0 mm 2 m/s 741 mm Hg 96%
06:00 -15°C° 0 mm 2 m/s 741 mm Hg 94%
07:00 -15°C° 0 mm 2 m/s 742 mm Hg 93%
08:00 -14°C° 0 mm 2 m/s 742 mm Hg 91%
09:00 -13°C° 0 mm 2 m/s 743 mm Hg 86%
10:00 -13°C° 0 mm 3 m/s 743 mm Hg 81%
11:00 -12°C° 0 mm 3 m/s 743 mm Hg 76%
12:00 -10°C° 0 mm 3 m/s 743 mm Hg 75%
13:00 -10°C° 0 mm 3 m/s 744 mm Hg 74%
14:00 -9°C° 0 mm 3 m/s 744 mm Hg 73%
15:00 -9°C° 0 mm 2 m/s 744 mm Hg 76%
16:00 -9°C° 0 mm 2 m/s 744 mm Hg 79%
17:00 -9°C° 0 mm 1 m/s 744 mm Hg 82%
18:00 -10°C° 0 mm 1 m/s 744 mm Hg 85%
19:00 -11°C° 0 mm 1 m/s 745 mm Hg 87%
20:00 -12°C° 0 mm 1 m/s 745 mm Hg 90%
21:00 -12°C° 0 mm 1 m/s 745 mm Hg 90%
22:00 -12°C° 0 mm 1 m/s 745 mm Hg 90%
23:00 -12°C° 0 mm 1 m/s 745 mm Hg 90%

Domani, 10 Marzo, Mercoledi

Tempo Temperatura Precipitazioni Vento Pressione Umidità
00:00 -11°C° 0.1 mm 1 m/s 745 mm Hg 92%
01:00 -11°C° 0.1 mm 1 m/s 745 mm Hg 93%
02:00 -12°C° 0.1 mm 2 m/s 745 mm Hg 94%
03:00 -12°C° 0.7 mm 2 m/s 745 mm Hg 94%
04:00 -12°C° 0.7 mm 2 m/s 745 mm Hg 94%
05:00 -12°C° 0.7 mm 2 m/s 745 mm Hg 94%
06:00 -10°C° 0.6 mm 2 m/s 745 mm Hg 94%
07:00 -10°C° 0.6 mm 2 m/s 745 mm Hg 93%
08:00 -10°C° 0.6 mm 2 m/s 746 mm Hg 93%
09:00 -12°C° 0.4 mm 3 m/s 746 mm Hg 92%
10:00 -13°C° 0.4 mm 3 m/s 746 mm Hg 92%
11:00 -14°C° 0.4 mm 4 m/s 746 mm Hg 91%
12:00 -14°C° 0.2 mm 4 m/s 746 mm Hg 90%
13:00 -14°C° 0.2 mm 4 m/s 747 mm Hg 88%
14:00 -13°C° 0.2 mm 3 m/s 747 mm Hg 87%
15:00 -14°C° 0 mm 3 m/s 747 mm Hg 87%
16:00 -14°C° 0 mm 3 m/s 747 mm Hg 86%
17:00 -15°C° 0 mm 3 m/s 747 mm Hg 86%
18:00 -16°C° 0 mm 3 m/s 748 mm Hg 87%
19:00 -18°C° 0 mm 3 m/s 748 mm Hg 88%
20:00 -19°C° 0 mm 3 m/s 749 mm Hg 89%
21:00 -21°C° 0 mm 3 m/s 749 mm Hg 90%
22:00 -22°C° 0 mm 3 m/s 749 mm Hg 91%
23:00 -21°C° 0 mm 2 m/s 750 mm Hg 92%

Dopodomani, 11 Marzo, Giovedi

Tempo Temperatura Precipitazioni Vento Pressione Umidità
00:00 -21°C° 0 mm 2 m/s 750 mm Hg 92%
01:00 -21°C° 0 mm 2 m/s 750 mm Hg 92%
02:00 -23°C° 0 mm 2 m/s 750 mm Hg 92%
03:00 -23°C° 0 mm 2 m/s 750 mm Hg 92%
04:00 -23°C° 0 mm 2 m/s 750 mm Hg 92%
05:00 -24°C° 0 mm 2 m/s 750 mm Hg 93%
06:00 -24°C° 0 mm 3 m/s 751 mm Hg 89%
07:00 -23°C° 0 mm 3 m/s 751 mm Hg 85%
08:00 -23°C° 0 mm 3 m/s 751 mm Hg 82%
09:00 -21°C° 0 mm 3 m/s 751 mm Hg 79%
10:00 -18°C° 0 mm 3 m/s 751 mm Hg 77%
11:00 -16°C° 0 mm 3 m/s 751 mm Hg 75%
12:00 -15°C° 0 mm 3 m/s 751 mm Hg 75%
13:00 -14°C° 0 mm 3 m/s 750 mm Hg 75%
14:00 -13°C° 0 mm 3 m/s 750 mm Hg 75%
15:00 -13°C° 0 mm 3 m/s 750 mm Hg 78%
16:00 -14°C° 0 mm 3 m/s 749 mm Hg 81%
17:00 -14°C° 0 mm 3 m/s 749 mm Hg 84%
18:00 -15°C° 0 mm 3 m/s 749 mm Hg 85%
19:00 -16°C° 0 mm 3 m/s 749 mm Hg 86%
20:00 -18°C° 0 mm 4 m/s 749 mm Hg 87%
21:00 -18°C° 0 mm 4 m/s 748 mm Hg 88%
22:00 -19°C° 0 mm 4 m/s 748 mm Hg 89%
23:00 -19°C° 0 mm 4 m/s 748 mm Hg 90%

12 Marzo, Venerdi

Tempo Temperatura Precipitazioni Vento Pressione Umidità
00:00 -19°C° 0 mm 4 m/s 748 mm Hg 91%
01:00 -19°C° 0 mm 4 m/s 747 mm Hg 92%
02:00 -20°C° 0 mm 4 m/s 747 mm Hg 93%
03:00 -20°C° 0 mm 4 m/s 746 mm Hg 93%
04:00 -21°C° 0 mm 5 m/s 746 mm Hg 93%
05:00 -21°C° 0 mm 5 m/s 745 mm Hg 93%
06:00 -19°C° 0 mm 5 m/s 744 mm Hg 90%
07:00 -18°C° 0 mm 5 m/s 744 mm Hg 87%
08:00 -17°C° 0 mm 6 m/s 743 mm Hg 84%
09:00 -15°C° 0 mm 6 m/s 743 mm Hg 81%
10:00 -13°C° 0 mm 7 m/s 742 mm Hg 79%
11:00 -11°C° 0 mm 7 m/s 742 mm Hg 77%
12:00 -11°C° 0.1 mm 7 m/s 741 mm Hg 81%
13:00 -10°C° 0.1 mm 8 m/s 741 mm Hg 85%
14:00 -8°C° 0.1 mm 8 m/s 740 mm Hg 88%
15:00 -8°C° 0.4 mm 8 m/s 739 mm Hg 89%
16:00 -8°C° 0.4 mm 8 m/s 739 mm Hg 89%
17:00 -8°C° 0.4 mm 8 m/s 738 mm Hg 90%
18:00 -8°C° 0.3 mm 8 m/s 738 mm Hg 90%
19:00 -8°C° 0.3 mm 7 m/s 738 mm Hg 91%
20:00 -8°C° 0.3 mm 7 m/s 738 mm Hg 91%
21:00 -8°C° 0.4 mm 7 m/s 737 mm Hg 92%
22:00 -8°C° 0.4 mm 7 m/s 737 mm Hg 92%
23:00 -8°C° 0.4 mm 6 m/s 737 mm Hg 93%

13 Marzo, Sabato

Tempo Temperatura Precipitazioni Vento Pressione Umidità
00:00 -8°C° 0.4 mm 6 m/s 736 mm Hg 93%
01:00 -7°C° 0.4 mm 5 m/s 736 mm Hg 94%
02:00 -7°C° 0.4 mm 5 m/s 736 mm Hg 94%
03:00 -5°C° 0.4 mm 4 m/s 736 mm Hg 95%
04:00 -5°C° 0.4 mm 3 m/s 736 mm Hg 96%
05:00 -3°C° 0.4 mm 2 m/s 736 mm Hg 97%
06:00 -4°C° 0.1 mm 3 m/s 736 mm Hg 96%
07:00 -2°C° 0.1 mm 3 m/s 737 mm Hg 95%
08:00 -1°C° 0.1 mm 3 m/s 737 mm Hg 95%
09:00 -1°C° 0 mm 3 m/s 737 mm Hg 95%
10:00 -1°C° 0 mm 3 m/s 738 mm Hg 96%
11:00 0°C° 0 mm 3 m/s 738 mm Hg 97%
12:00 0°C° 0 mm 3 m/s 738 mm Hg 97%
13:00 0°C° 0 mm 3 m/s 738 mm Hg 97%
14:00 -1°C° 0 mm 4 m/s 738 mm Hg 97%
15:00 -1°C° 0 mm 4 m/s 738 mm Hg 96%
16:00 -1°C° 0 mm 4 m/s 738 mm Hg 95%
17:00 -1°C° 0 mm 4 m/s 738 mm Hg 95%
18:00 -1°C° 0 mm 4 m/s 738 mm Hg 94%
19:00 -1°C° 0 mm 4 m/s 738 mm Hg 93%
20:00 -1°C° 0 mm 4 m/s 738 mm Hg 93%
21:00 -1°C° 0 mm 4 m/s 737 mm Hg 93%
22:00 -1°C° 0 mm 5 m/s 737 mm Hg 94%
23:00 -1°C° 0 mm 5 m/s 737 mm Hg 95%

14 Marzo, Domenica

Tempo Temperatura Precipitazioni Vento Pressione Umidità
00:00 -1°C° 0.3 mm 5 m/s 737 mm Hg 96%
01:00 -1°C° 0.3 mm 5 m/s 737 mm Hg 96%
02:00 -1°C° 0.3 mm 5 m/s 736 mm Hg 97%
03:00 -1°C° 0.5 mm 4 m/s 736 mm Hg 97%
04:00 0°C° 0.5 mm 3 m/s 736 mm Hg 97%
05:00 0°C° 0.5 mm 3 m/s 736 mm Hg 97%
06:00 0°C° 0 mm 3 m/s 736 mm Hg 96%
07:00 -1°C° 0 mm 3 m/s 736 mm Hg 94%
08:00 -2°C° 0 mm 4 m/s 736 mm Hg 93%
09:00 -1°C° 0 mm 4 m/s 736 mm Hg 93%
10:00 -1°C° 0 mm 4 m/s 736 mm Hg 93%
11:00 0°C° 0 mm 5 m/s 736 mm Hg 93%
12:00 0°C° 0 mm 5 m/s 736 mm Hg 95%
13:00 0°C° 0 mm 5 m/s 736 mm Hg 96%
14:00 0°C° 0 mm 5 m/s 736 mm Hg 98%
15:00 0°C° 0.1 mm 5 m/s 736 mm Hg 97%
16:00 0°C° 0.1 mm 5 m/s 736 mm Hg 97%
17:00 0°C° 0.1 mm 5 m/s 736 mm Hg 97%
18:00 0°C° 0.3 mm 5 m/s 736 mm Hg 97%
19:00 0°C° 0.3 mm 5 m/s 736 mm Hg 97%
20:00 0°C° 0.3 mm 5 m/s 736 mm Hg 96%
21:00 0°C° 0.6 mm 5 m/s 736 mm Hg 96%
22:00 0°C° 0.6 mm 5 m/s 736 mm Hg 96%
23:00 -1°C° 0.6 mm 6 m/s 735 mm Hg 96%
Mostrare altro

Abbiamo bisogno del tuo consenso

Meteoprog e i nostri fornitori di servizi possono memorizzare e accedere a dati personali come cookie, identificatori di dispositivi o altre tecnologie simili sul tuo dispositivo e possono elaborare tali dati per personalizzare i contenuti e gli annunci, nonché fornire funzionalità dei social media e analizzarne il traffico.

  • Archiviare e/o accedere alle informazioni sul tuo dispositivo

    Cookie, identificatori di dispositivi o altre informazioni possono essere memorizzati o resi accessibili sul tuo dispositivo per le finalità sopra indicate.

  • Annunci e contenuti personalizzati, misurazione di annunci e contenuti, approfondimenti sul pubblico e sviluppo di prodotti

    Gli annunci e i contenuti possono essere personalizzati in base a un profilo. È possibile aggiungere più dati per personalizzare meglio annunci e contenuti. È possibile misurare il rendimento degli annunci e dei contenuti. È possibile ricavare informazioni sul pubblico che ha visto gli annunci e i contenuti. Tali dati possono essere utilizzati per sviluppare o migliorare l'esperienza, i sistemi e il software dell'utente.

Cliccando su “Accetto”, acconsenti all'uso di cookie, identificatori di dispositivo, web beacon o altre tecnologie simili. Puoi modificare le impostazioni nel browser del tuo dispositivo.

Per determinati scopi, è possibile fare affidamento su interessi legali, piuttosto che sul consenso. Puoi approfondire questo argomento consultando la nostra Informativa sulla privacy e sui cookie.